Cocoa Beach, FL

3:25 PM EDT on October 17, 2017 (GMT -0400)
Patrick Air Force Base

Weather History for KCOF - June, 2013

Change the Weather History Date:

Saturday, June 29, 2013

  Actual Average Record
Temperature  
Mean Temperature 83 °F -  
Max Temperature 91 °F 84 °F 93 °F (2015)
Min Temperature 76 °F 74 °F 72 °F (2012)
Cooling Degree Days 18    
Growing Degree Days 33 (Base 50)    
Moisture  
Dew Point 73 °F    
Average Humidity 80    
Maximum Humidity 91    
Minimum Humidity 57    
Precipitation  
Precipitation 0.00 in - - ()
Sea Level Pressure  
Sea Level Pressure 29.88 in    
Wind  
Wind Speed 11 mph (SSW)    
Max Wind Speed 15 mph    
Max Gust Speed -    
Visibility 10 miles    
Events Rain    
Averages and records for this station are not official NWS values.
T = Trace of Precipitation, MM = Missing Value Source: NWS Daily Summary

Daily Weather History Graph

Daily Weather History Graph

Search for Another Location

Airport or City:

Trip Planner

Search our weather history database for the weather conditions in past years. The results will help you decide how hot, cold, wet, or windy it might be!

Date:

Astronomy

Jun. 29, 2013 Rise Set
Actual Time 6:28 AM EDT 8:23 PM EDT
Civil Twilight 6:01 AM EDT 8:50 PM EDT
Nautical Twilight 5:29 AM EDT 9:22 PM EDT
Astronomical Twilight 4:55 AM EDT 9:56 PM EDT
Moon 12:25 AM EDT (6/29) 1:01 PM EDT (6/29)
Length of Visible Light 14h 48m
Length of Day
13h 54m
Waning Gibbous, 56% of the Moon is Illuminated
Jun 29
Waning Gibbous
Jun 30
Last Quarter
Jul 8
New
Jul 15
First Quarter
Jul 22
Full

Hourly Weather History & Observations

Time (EDT) Temp. Heat Index Dew Point Humidity Pressure Visibility Wind Dir Wind Speed Gust Speed Precip Events Conditions
12:58 AM 77.4 °F - 72.3 °F 84% 29.91 in 10.0 mi SSW 10.4 mph - N/A   Clear
1:58 AM 77.0 °F - 72.7 °F 86% 29.88 in 10.0 mi SSW 12.7 mph - N/A   Clear
2:58 AM 76.8 °F - 73.8 °F 90% 29.88 in 10.0 mi SSW 12.7 mph - N/A   Clear
3:58 AM 77.2 °F - 73.8 °F 89% 29.88 in 10.0 mi SSW 15.0 mph - N/A   Clear
4:58 AM 77.4 °F - 74.3 °F 90% 29.88 in 10.0 mi SSW 12.7 mph - N/A   Clear
5:58 AM 77.0 °F - 74.3 °F 91% 29.90 in 10.0 mi SSW 11.5 mph - N/A   Clear
6:58 AM 77.4 °F - 74.5 °F 91% 29.91 in 10.0 mi SSW 11.5 mph - N/A   Clear
7:58 AM 79.0 °F - 75.6 °F 89% 29.91 in 10.0 mi SSW 13.8 mph - N/A   Clear
8:58 AM 82.0 °F 88.9 °F 75.4 °F 80% 29.91 in 10.0 mi SW 10.4 mph - N/A   Clear
9:58 AM 84.6 °F 92.4 °F 74.5 °F 72% 29.88 in 10.0 mi SW 12.7 mph - N/A   Clear
10:58 AM 86.9 °F 95.4 °F 74.1 °F 66% 29.88 in 10.0 mi SW 11.5 mph - N/A   Clear
11:58 AM 89.2 °F 97.4 °F 73.0 °F 59% 29.88 in 10.0 mi WSW 11.5 mph - N/A   Clear
12:58 PM 90.3 °F 98.7 °F 73.0 °F 57% 29.88 in 10.0 mi SW 12.7 mph - N/A   Partly Cloudy
3:58 PM 81.3 °F 85.2 °F 70.5 °F 70% 29.86 in 10.0 mi Calm Calm - 0.00 in   Clear
4:58 PM 80.6 °F 85.2 °F 73.2 °F 78% 29.86 in 10.0 mi SE 8.1 mph - N/A   Clear
5:58 PM 79.2 °F - 72.1 °F 79% 29.85 in 10.0 mi SSE 8.1 mph - N/A   Clear
6:47 PM 80.6 °F 84.6 °F 71.6 °F 74% 29.84 in 10.0 mi South 9.2 mph - N/A   Light Drizzle
6:58 PM 81.3 °F 86.5 °F 73.4 °F 77% 29.86 in 9.0 mi SSW 9.2 mph - 0.00 in Rain Light Rain
7:58 PM 77.9 °F - 73.2 °F 85% 29.88 in 10.0 mi South 9.2 mph - 0.00 in   Light Drizzle
8:02 PM 78.8 °F - 73.4 °F 83% 29.86 in 10.0 mi South 10.4 mph - N/A   Clear
8:58 PM 76.3 °F - 69.8 °F 80% 29.88 in 10.0 mi South 11.5 mph - 0.00 in   Clear
9:58 PM 76.3 °F - 71.2 °F 84% 29.88 in 10.0 mi SSW 12.7 mph - N/A   Clear
10:58 PM 76.8 °F - 71.8 °F 84% 29.88 in 10.0 mi SSW 10.4 mph - N/A   Clear
11:58 PM 77.4 °F - 72.3 °F 84% 29.90 in 10.0 mi South 5.8 mph - N/A   Clear